JST0818 YMML-YSSY

Flight info

Callsign JST0818
Flight time N/A
Altitude 33000
Route DOSEL2/27 DOSEL Y59 RIVET
Aircraft A320/M-SDE3FGHIRWY/LB1

Departure

Time 2026-05-07 10:02
Airport Melbourne Airport (YMML)

Arrival

Time N/A
Airport Sydney Kingsford Smith International Airport (YSSY)
Time Latitude Longitude Altitude Speed Heading
2026-05-07 09:45 -37.67269 144.84660 442 ft 0 kts 171°
2026-05-07 09:53 -37.67270 144.84660 442 ft 0 kts 171°
2026-05-07 09:53 -37.67266 144.84660 442 ft 2 kts 172°
2026-05-07 09:53 -37.67246 144.84656 442 ft 2 kts 171°
2026-05-07 09:54 -37.67218 144.84651 442 ft 2 kts 171°
2026-05-07 09:54 -37.67205 144.84648 442 ft 0 kts 170°
2026-05-07 09:54 -37.67198 144.84650 442 ft 1 kts 229°
2026-05-07 09:54 -37.67195 144.84656 442 ft 1 kts 270°
2026-05-07 09:55 -37.67195 144.84662 442 ft 0 kts 261°
2026-05-07 09:56 -37.67195 144.84660 442 ft 0 kts 261°
2026-05-07 09:57 -37.67201 144.84613 442 ft 10 kts 261°
2026-05-07 09:57 -37.67209 144.84494 442 ft 16 kts 279°
2026-05-07 09:57 -37.67204 144.84390 442 ft 19 kts 266°
2026-05-07 09:57 -37.67121 144.84255 442 ft 17 kts 350°
2026-05-07 09:58 -37.67002 144.84232 442 ft 17 kts 352°
2026-05-07 09:58 -37.66880 144.84209 442 ft 17 kts 351°
2026-05-07 09:58 -37.66759 144.84187 442 ft 15 kts 358°
2026-05-07 09:58 -37.66693 144.84276 442 ft 15 kts 78°
2026-05-07 09:59 -37.66676 144.84415 442 ft 15 kts 81°
2026-05-07 09:59 -37.66660 144.84555 442 ft 16 kts 81°
2026-05-07 09:59 -37.66643 144.84698 442 ft 16 kts 81°
2026-05-07 09:59 -37.66578 144.84804 442 ft 16 kts
2026-05-07 10:00 -37.66464 144.84779 442 ft 16 kts 355°
2026-05-07 10:00 -37.66359 144.84784 442 ft 8 kts
2026-05-07 10:00 -37.66348 144.84786 442 ft 1 kts
2026-05-07 10:00 -37.66346 144.84786 442 ft 0 kts
2026-05-07 10:01 -37.66309 144.84786 442 ft 9 kts 351°
2026-05-07 10:01 -37.66233 144.84723 442 ft 17 kts 299°
2026-05-07 10:02 -37.66207 144.84497 442 ft 53 kts 274°
2026-05-07 10:02 -37.66159 144.83670 442 ft 131 kts 274°
2026-05-07 10:02 -37.66058 144.82295 701 ft 169 kts 274°
2026-05-07 10:02 -37.65940 144.80837 1658 ft 166 kts 273°
2026-05-07 10:03 -37.65866 144.79431 2661 ft 163 kts 272°
2026-05-07 10:03 -37.65797 144.77956 3234 ft 177 kts 272°
2026-05-07 10:03 -37.65712 144.76329 3742 ft 195 kts 273°
2026-05-07 10:03 -37.65604 144.74515 4186 ft 219 kts 274°
2026-05-07 10:04 -37.65480 144.72517 4779 ft 238 kts 274°
2026-05-07 10:04 -37.65346 144.70334 5546 ft 249 kts 274°
2026-05-07 10:04 -37.65171 144.68146 6511 ft 252 kts 282°
2026-05-07 10:04 -37.64404 144.66150 7437 ft 258 kts 308°
2026-05-07 10:05 -37.62990 144.64787 8340 ft 268 kts 333°
2026-05-07 10:05 -37.61224 144.64040 9263 ft 272 kts 339°
2026-05-07 10:05 -37.59386 144.63367 10147 ft 276 kts 339°
2026-05-07 10:05 -37.57504 144.62692 10931 ft 283 kts 342°
2026-05-07 10:06 -37.55394 144.62547 11364 ft 312 kts
2026-05-07 10:06 -37.53257 144.63518 11725 ft 342 kts 27°
2026-05-07 10:06 -37.51467 144.65625 12064 ft 368 kts 48°
2026-05-07 10:06 -37.49884 144.68283 12424 ft 386 kts 50°
2026-05-07 10:07 -37.48242 144.71173 12726 ft 404 kts 52°
2026-05-07 10:07 -37.46663 144.74255 13124 ft 418 kts 56°
2026-05-07 10:07 -37.45204 144.77432 13967 ft 418 kts 57°
2026-05-07 10:07 -37.43721 144.80699 14714 ft 421 kts 57°
2026-05-07 10:08 -37.42223 144.83990 15332 ft 426 kts 56°
2026-05-07 10:08 -37.40691 144.87340 15956 ft 431 kts 56°
2026-05-07 10:08 -37.39173 144.90648 16558 ft 436 kts 56°
2026-05-07 10:08 -37.37611 144.94049 17160 ft 440 kts 56°
2026-05-07 10:09 -37.36052 144.97435 17733 ft 445 kts 56°
2026-05-07 10:09 -37.34493 145.00815 18278 ft 450 kts 56°
2026-05-07 10:09 -37.32866 145.04336 18820 ft 455 kts 56°
2026-05-07 10:09 -37.31208 145.07922 19356 ft 459 kts 56°
2026-05-07 10:10 -37.29570 145.11461 19859 ft 464 kts 55°
2026-05-07 10:10 -37.27896 145.15074 20352 ft 469 kts 56°
2026-05-07 10:10 -37.26222 145.18681 20822 ft 474 kts 55°
2026-05-07 10:10 -37.24552 145.22276 21352 ft 477 kts 55°
2026-05-07 10:11 -37.22848 145.25941 21863 ft 480 kts 55°
2026-05-07 10:11 -37.21167 145.29550 22323 ft 484 kts 55°
2026-05-07 10:11 -37.19423 145.33290 22785 ft 488 kts 55°
2026-05-07 10:11 -37.17703 145.36974 23280 ft 490 kts 54°
2026-05-07 10:12 -37.15898 145.40581 23768 ft 490 kts 51°
2026-05-07 10:12 -37.13925 145.44130 24194 ft 492 kts 49°
2026-05-07 10:12 -37.11936 145.47607 24598 ft 495 kts 49°
2026-05-07 10:12 -37.09906 145.51131 24999 ft 498 kts 49°
2026-05-07 10:13 -37.07859 145.54678 25381 ft 501 kts 49°
2026-05-07 10:13 -37.05790 145.58261 25747 ft 504 kts 49°
2026-05-07 10:13 -37.03720 145.61852 26104 ft 507 kts 49°
2026-05-07 10:13 -37.01625 145.65485 26446 ft 509 kts 48°
2026-05-07 10:14 -36.99531 145.69127 26833 ft 509 kts 48°
2026-05-07 10:14 -36.97424 145.72798 27306 ft 508 kts 48°
2026-05-07 10:14 -36.95301 145.76488 27761 ft 506 kts 48°
2026-05-07 10:14 -36.93189 145.80148 28179 ft 506 kts 48°
2026-05-07 10:15 -36.91083 145.83787 28581 ft 506 kts 48°
2026-05-07 10:15 -36.88984 145.87405 28981 ft 505 kts 47°
2026-05-07 10:15 -36.86905 145.90962 29378 ft 505 kts 47°
2026-05-07 10:15 -36.84819 145.94525 29774 ft 505 kts 47°
2026-05-07 10:16 -36.82705 145.98140 30172 ft 505 kts 47°
2026-05-07 10:16 -36.80626 146.01700 30561 ft 504 kts 47°
2026-05-07 10:16 -36.78538 146.05273 30946 ft 504 kts 47°
2026-05-07 10:16 -36.76450 146.08849 31326 ft 504 kts 47°
2026-05-07 10:17 -36.74358 146.12425 31686 ft 504 kts 47°
2026-05-07 10:17 -36.72284 146.15968 31981 ft 505 kts 46°
2026-05-07 10:17 -36.70196 146.19530 32243 ft 507 kts 46°
2026-05-07 10:17 -36.68085 146.23128 32500 ft 508 kts 46°
2026-05-07 10:18 -36.65978 146.26717 32752 ft 509 kts 46°
2026-05-07 10:18 -36.63900 146.30252 32992 ft 511 kts 46°
2026-05-07 10:18 -36.61790 146.33839 33212 ft 512 kts 46°
2026-05-07 10:19 -36.57536 146.41058 33267 ft 514 kts 46°
2026-05-07 10:19 -36.53299 146.48236 33272 ft 514 kts 46°
2026-05-07 10:20 -36.48974 146.55547 33273 ft 514 kts 46°
2026-05-07 10:20 -36.44600 146.62923 33273 ft 514 kts 46°
2026-05-07 10:21 -36.40293 146.70192 33271 ft 513 kts 46°
2026-05-07 10:21 -36.35946 146.77519 33273 ft 513 kts 46°
2026-05-07 10:22 -36.31581 146.84839 33273 ft 513 kts 46°
2026-05-07 10:22 -36.27237 146.92091 33268 ft 513 kts 46°
2026-05-07 10:23 -36.22850 146.99393 33250 ft 515 kts 46°
2026-05-07 10:23 -36.18459 147.06689 33226 ft 517 kts 46°
2026-05-07 10:24 -36.14089 147.13974 33208 ft 518 kts 47°
2026-05-07 10:24 -36.09689 147.21289 33198 ft 519 kts 47°
2026-05-07 10:25 -36.05219 147.28690 33195 ft 519 kts 47°
2026-05-07 10:25 -36.00791 147.35996 33193 ft 519 kts 46°
2026-05-07 10:26 -35.96363 147.43282 33193 ft 519 kts 46°
2026-05-07 10:26 -35.91943 147.50539 33193 ft 519 kts 46°
2026-05-07 10:27 -35.87535 147.57736 33193 ft 519 kts 46°
2026-05-07 10:27 -35.83052 147.65033 33192 ft 519 kts 46°
2026-05-07 10:28 -35.78611 147.72330 33191 ft 518 kts 46°
2026-05-07 10:28 -35.74221 147.79515 33192 ft 518 kts 46°
2026-05-07 10:29 -35.69860 147.86616 33192 ft 518 kts 46°
2026-05-07 10:29 -35.65476 147.93733 33193 ft 518 kts 46°
2026-05-07 10:30 -35.58881 148.04404 33192 ft 518 kts 46°
2026-05-07 10:30 -35.54476 148.11511 33192 ft 518 kts 46°
2026-05-07 10:31 -35.50080 148.18591 33193 ft 518 kts 46°
2026-05-07 10:31 -35.45619 148.25755 33192 ft 518 kts 46°
2026-05-07 10:32 -35.41112 148.32996 33192 ft 518 kts 46°
2026-05-07 10:32 -35.36655 148.40161 33192 ft 519 kts 46°
2026-05-07 10:33 -35.32133 148.47398 33193 ft 518 kts 46°
2026-05-07 10:33 -35.27627 148.54590 33193 ft 518 kts 46°
2026-05-07 10:34 -35.23094 148.61804 33193 ft 518 kts 46°
2026-05-07 10:34 -35.18599 148.68957 33191 ft 518 kts 45°
2026-05-07 10:35 -35.14136 148.76065 33192 ft 518 kts 45°
2026-05-07 10:35 -35.09730 148.83046 33192 ft 518 kts 45°
2026-05-07 10:36 -35.05274 148.90074 33192 ft 520 kts 46°
2026-05-07 10:36 -35.00817 148.97089 33192 ft 521 kts 46°
2026-05-07 10:37 -34.96309 149.04173 33192 ft 523 kts 47°
2026-05-07 10:37 -34.91817 149.11226 33193 ft 523 kts 47°
2026-05-07 10:38 -34.89539 149.14795 33081 ft 523 kts 47°
2026-05-07 10:38 -34.87270 149.18324 32825 ft 520 kts 47°
2026-05-07 10:38 -34.85029 149.21803 32573 ft 518 kts 47°
2026-05-07 10:38 -34.82804 149.25261 32321 ft 515 kts 47°
2026-05-07 10:39 -34.80577 149.28728 32065 ft 512 kts 47°
2026-05-07 10:39 -34.78394 149.32127 31737 ft 508 kts 47°
2026-05-07 10:39 -34.76240 149.35519 31064 ft 508 kts 49°
2026-05-07 10:39 -34.74181 149.39105 30520 ft 510 kts 53°
2026-05-07 10:40 -34.72312 149.42828 30271 ft 516 kts 57°
2026-05-07 10:40 -34.70565 149.46747 30017 ft 517 kts 59°
2026-05-07 10:40 -34.68855 149.50696 29631 ft 518 kts 60°
2026-05-07 10:40 -34.67180 149.54576 29045 ft 518 kts 60°
2026-05-07 10:41 -34.65486 149.58485 28322 ft 518 kts 60°
2026-05-07 10:41 -34.63805 149.62346 27532 ft 518 kts 60°
2026-05-07 10:41 -34.62122 149.66196 26681 ft 518 kts 59°
2026-05-07 10:41 -34.60416 149.70102 25812 ft 518 kts 60°
2026-05-07 10:42 -34.58734 149.73950 25290 ft 508 kts 60°
2026-05-07 10:42 -34.57034 149.77829 24781 ft 503 kts 60°
2026-05-07 10:42 -34.55367 149.81619 24242 ft 498 kts 60°
2026-05-07 10:42 -34.53701 149.85394 23690 ft 493 kts 60°
2026-05-07 10:43 -34.52061 149.89104 23136 ft 488 kts 60°
2026-05-07 10:43 -34.50422 149.92815 22574 ft 484 kts 60°
2026-05-07 10:43 -34.48793 149.96509 22003 ft 479 kts 60°
2026-05-07 10:43 -34.47174 150.00182 21420 ft 474 kts 60°
2026-05-07 10:44 -34.45572 150.03807 20853 ft 469 kts 60°
2026-05-07 10:44 -34.44016 150.07320 20293 ft 464 kts 60°
2026-05-07 10:44 -34.42455 150.10840 19725 ft 460 kts 60°
2026-05-07 10:44 -34.40893 150.14352 19155 ft 455 kts 60°
2026-05-07 10:45 -34.38818 150.19016 18397 ft 449 kts 60°
2026-05-07 10:46 -34.31593 150.35184 15716 ft 427 kts 61°
2026-05-07 10:46 -34.30131 150.38446 15165 ft 423 kts 61°
2026-05-07 10:46 -34.28688 150.41664 14616 ft 419 kts 61°
2026-05-07 10:47 -34.27265 150.44846 14068 ft 415 kts 61°
2026-05-07 10:47 -34.25920 150.47996 13523 ft 410 kts 67°
2026-05-07 10:47 -34.24908 150.51321 12983 ft 404 kts 72°
2026-05-07 10:47 -34.24030 150.54628 12442 ft 399 kts 73°
2026-05-07 10:48 -34.23176 150.57919 11897 ft 393 kts 73°
2026-05-07 10:48 -34.22337 150.61175 11352 ft 390 kts 73°
2026-05-07 10:48 -34.21627 150.64372 10804 ft 387 kts 82°
2026-05-07 10:48 -34.21698 150.67700 10263 ft 381 kts 104°
2026-05-07 10:49 -34.22746 150.70679 10016 ft 363 kts 127°
2026-05-07 10:49 -34.24508 150.72819 10015 ft 337 kts 147°
2026-05-07 10:49 -34.26492 150.74381 10013 ft 323 kts 152°
2026-05-07 10:49 -34.28369 150.75874 9987 ft 310 kts 141°
2026-05-07 10:50 -34.29658 150.77982 9986 ft 301 kts 115°
2026-05-07 10:50 -34.30138 150.80528 10004 ft 303 kts 97°
2026-05-07 10:50 -34.30278 150.83154 10003 ft 304 kts 94°
2026-05-07 10:50 -34.30353 150.85776 10002 ft 304 kts 93°
2026-05-07 10:51 -34.30419 150.88396 9856 ft 306 kts 93°
2026-05-07 10:51 -34.30485 150.91090 9299 ft 311 kts 93°
2026-05-07 10:51 -34.30555 150.93855 8693 ft 316 kts 93°
2026-05-07 10:51 -34.30628 150.96619 8106 ft 320 kts 93°
2026-05-07 10:52 -34.30703 150.99452 7528 ft 322 kts 93°
2026-05-07 10:52 -34.30777 151.02267 6957 ft 325 kts 93°
2026-05-07 10:52 -34.30850 151.05060 6396 ft 326 kts 93°
2026-05-07 10:52 -34.30827 151.07855 6046 ft 320 kts 82°
2026-05-07 10:53 -34.30039 151.10384 6003 ft 303 kts 54°
2026-05-07 10:53 -34.28537 151.12131 5996 ft 285 kts 27°
2026-05-07 10:53 -34.26635 151.13097 6006 ft 283 kts 15°
2026-05-07 10:53 -34.24691 151.13825 6003 ft 282 kts 13°
2026-05-07 10:54 -34.22719 151.14517 6001 ft 282 kts 13°
2026-05-07 10:54 -34.20777 151.15193 5996 ft 276 kts 13°
2026-05-07 10:54 -34.18927 151.15840 5993 ft 261 kts 13°
2026-05-07 10:54 -34.17090 151.16487 5997 ft 261 kts 13°
2026-05-07 10:55 -34.15221 151.17145 5999 ft 261 kts 13°
2026-05-07 10:55 -34.13405 151.17783 5949 ft 262 kts 13°
2026-05-07 10:55 -34.11611 151.18413 5708 ft 258 kts 13°
2026-05-07 10:55 -34.09847 151.19035 5473 ft 253 kts 13°
2026-05-07 10:56 -34.08108 151.19650 5119 ft 254 kts 13°
2026-05-07 10:56 -34.06345 151.20273 4758 ft 255 kts 13°
2026-05-07 10:56 -34.04617 151.20886 4693 ft 241 kts 13°
2026-05-07 10:56 -34.02992 151.21469 4660 ft 235 kts 13°
2026-05-07 10:57 -34.01460 151.22357 4506 ft 239 kts 40°
2026-05-07 10:57 -34.00455 151.24089 4259 ft 241 kts 67°
2026-05-07 10:57 -33.99857 151.26035 3956 ft 242 kts 72°
2026-05-07 10:57 -33.99321 151.28082 3562 ft 246 kts 73°
2026-05-07 10:58 -33.98804 151.30125 3180 ft 249 kts 73°
2026-05-07 10:58 -33.98297 151.32155 3028 ft 241 kts 73°
2026-05-07 10:58 -33.97803 151.34139 2955 ft 232 kts 73°
2026-05-07 10:58 -33.97323 151.36067 2981 ft 235 kts 73°
2026-05-07 10:59 -33.96834 151.38036 2991 ft 235 kts 73°
2026-05-07 10:59 -33.96345 151.40001 2996 ft 235 kts 73°
2026-05-07 10:59 -33.95860 151.41950 2998 ft 235 kts 73°
2026-05-07 10:59 -33.95381 151.43872 2999 ft 235 kts 72°
2026-05-07 11:00 -33.94574 151.45654 2989 ft 233 kts 41°
2026-05-07 11:00 -33.93176 151.46613 2993 ft 226 kts
2026-05-07 11:00 -33.91593 151.46464 2996 ft 217 kts 334°
2026-05-07 11:00 -33.90272 151.45522 2983 ft 209 kts 308°
2026-05-07 11:01 -33.89550 151.43986 2998 ft 204 kts 288°
2026-05-07 11:01 -33.89094 151.42325 2993 ft 194 kts 284°
2026-05-07 11:01 -33.88740 151.40788 2976 ft 178 kts 273°
2026-05-07 11:01 -33.88847 151.39336 2977 ft 159 kts 255°
2026-05-07 11:02 -33.89161 151.38097 3000 ft 137 kts 251°
2026-05-07 11:02 -33.89467 151.36981 2986 ft 130 kts 252°
2026-05-07 11:02 -33.89745 151.35916 2874 ft 129 kts 253°
2026-05-07 11:02 -33.90013 151.34848 2685 ft 126 kts 253°
2026-05-07 11:03 -33.90276 151.33768 2505 ft 126 kts 254°
2026-05-07 11:03 -33.90443 151.33066 2390 ft 125 kts 254°